Weather History for Peoria, IL

Change the Weather History Date:

Wednesday, May 29, 2013

  Actual Average Record
Temperature  
Mean Temperature 74 °F 66 °F  
Max Temperature 85 °F 77 °F 99 °F (1934)
Min Temperature 62 °F 56 °F 33 °F (1965)
Degree Days  
Heating Degree Days 0 2  
Month to date heating degree days 121 143  
Since 1 July heating degree days 5813 5808  
Cooling Degree Days 9 4  
Month to date cooling degree days 85 59  
Year to date cooling degree days 94 73  
Growing Degree Days 23 (Base 50)    
Moisture  
Dew Point 64 °F    
Average Humidity 71    
Maximum Humidity 87    
Minimum Humidity 55    
Precipitation  
Precipitation 0.37 in 0.12 in 1.62 in (1889)
Month to date precipitation 8.96 4.07  
Year to date precipitation 26.07 14.07  
Snow  
Snow 0.00 in 0.00 in 0.00 in ()
Month to date snowfall 0.0 0.0  
Since 1 July snowfall 22.7 24.6  
Snow Depth 0.00 in    
Sea Level Pressure  
Sea Level Pressure 29.89 in    
Wind  
Wind Speed 12 mph (SSW)    
Max Wind Speed 21 mph    
Max Gust Speed 26 mph    
Visibility 9 miles    
Events Rain , Thunderstorm    
T = Trace of Precipitation, MM = Missing Value Source: NWS Daily Summary

Daily Weather History Graph

Daily Weather History Graph

Search for Another Location

Airport:

Trip Planner

Search our weather history database for the weather conditions in past years. The results will help you decide how hot, cold, wet, or windy it might be!

Date:

Astronomy

May. 29, 2013 Rise Set
Actual Time 5:31 AM CDT 8:21 PM CDT
Civil Twilight 4:58 AM CDT 8:54 PM CDT
Nautical Twilight 4:18 AM CDT 9:34 PM CDT
Astronomical Twilight 3:31 AM CDT 10:22 PM CDT
Moon No Moon Rise 10:31 AM CDT (5/29)
Length of Visible Light 15h 55m
Length of Day
14h 50m
Waning Gibbous, 73% of the Moon is Illuminated
May 29
Waning Gibbous
May 31
Last Quarter
Jun 8
New
Jun 16
First Quarter
Jun 23
Full

Hourly Weather History & Observations

Time (CDT) Temp. Heat Index Dew Point Humidity Pressure Visibility Wind Dir Wind Speed Gust Speed Precip Events Conditions
12:05 AM 68.0 °F - 63.0 °F 84% 29.91 in 5.0 mi WNW 10.4 mph 19.6 mph 0.02 in Rain , Thunderstorm Thunderstorms and Rain
12:54 AM 64.9 °F - 61.0 °F 87% 29.85 in 9.0 mi Calm Calm - 0.06 in Rain , Thunderstorm Thunderstorms and Rain
1:35 AM 64.0 °F - 62.1 °F 93% 29.85 in 10.0 mi South 5.8 mph - 0.02 in   Scattered Clouds
1:54 AM 64.0 °F - 62.1 °F 93% 29.84 in 10.0 mi SSW 5.8 mph - 0.02 in   Partly Cloudy
2:54 AM 64.0 °F - 61.0 °F 90% 29.86 in 10.0 mi SSW 12.7 mph - 0.00 in   Mostly Cloudy
3:54 AM 64.0 °F - 60.1 °F 87% 29.93 in 10.0 mi WNW 10.4 mph - N/A   Overcast
4:13 AM 63.0 °F - 60.1 °F 90% 29.97 in 1.8 mi West 15.0 mph 27.6 mph 0.14 in Rain Heavy Rain
4:26 AM 63.0 °F - 60.1 °F 90% 29.95 in 3.0 mi WNW 11.5 mph 21.9 mph 0.34 in Rain Light Rain
4:54 AM 63.0 °F - 60.1 °F 90% 29.89 in 10.0 mi Calm Calm - 0.36 in Rain Light Rain
5:54 AM 63.0 °F - 60.1 °F 90% 29.87 in 10.0 mi SE 11.5 mph - 0.00 in   Partly Cloudy
6:54 AM 64.0 °F - 61.0 °F 90% 29.91 in 10.0 mi SW 4.6 mph - N/A   Clear
7:54 AM 66.9 °F - 63.0 °F 87% 29.91 in 10.0 mi South 5.8 mph - N/A   Partly Cloudy
8:54 AM 69.1 °F - 63.0 °F 81% 29.92 in 10.0 mi South 8.1 mph - N/A   Clear
9:54 AM 75.0 °F - 66.0 °F 73% 29.91 in 10.0 mi SSW 11.5 mph - N/A   Clear
10:54 AM 78.8 °F - 68.0 °F 69% 29.93 in 10.0 mi SSW 13.8 mph 19.6 mph N/A   Clear
11:54 AM - - - N/A% 29.92 in - North - - N/A   Unknown
12:54 PM 81.0 °F 84.1 °F 69.1 °F 67% 29.90 in 10.0 mi SSW 12.7 mph - N/A   Unknown
12:59 PM 81.0 °F 83.8 °F 68.0 °F 65% 29.90 in 10.0 mi South 13.8 mph - N/A   Scattered Clouds
1:54 PM 82.0 °F 84.9 °F 68.0 °F 62% 29.89 in 10.0 mi South 12.7 mph - N/A   Scattered Clouds
2:54 PM 82.9 °F 85.8 °F 68.0 °F 60% 29.88 in 10.0 mi South 16.1 mph - N/A   Partly Cloudy
3:54 PM 84.0 °F 87.0 °F 68.0 °F 58% 29.86 in 10.0 mi South 13.8 mph - N/A   Clear
4:54 PM 84.0 °F 86.5 °F 66.9 °F 56% 29.85 in 10.0 mi South 17.3 mph 25.3 mph N/A   Partly Cloudy
5:54 PM 82.9 °F 85.0 °F 66.0 °F 56% 29.83 in 10.0 mi South 19.6 mph 26.5 mph N/A   Partly Cloudy
6:54 PM 82.0 °F 84.1 °F 66.0 °F 58% 29.83 in 10.0 mi South 16.1 mph 25.3 mph N/A   Partly Cloudy
7:54 PM 79.0 °F - 66.0 °F 64% 29.84 in 10.0 mi South 11.5 mph - N/A   Clear
8:54 PM 77.0 °F - 64.9 °F 66% 29.83 in 10.0 mi South 11.5 mph - N/A   Clear
9:54 PM 75.9 °F - 64.9 °F 69% 29.87 in 10.0 mi South 13.8 mph - N/A   Clear
10:54 PM 75.9 °F - 64.9 °F 69% 29.88 in 10.0 mi South 16.1 mph - N/A   Clear
11:54 PM 73.9 °F - 64.9 °F 73% 29.90 in 10.0 mi South 13.8 mph 21.9 mph N/A   Clear